This demonstration page uses our WeatherBlox Daily Observations layout. Learn more.

Left ArrowRight Arrow

36.19886, -115.1175

Hourly Observations for April 19, 2021

Temp ( °F °C ) Dew Point ( °F °C ) Humidity (%) Winds ( mph kmh ) Pressure ( in mb ) Visibility ( mi km ) Precip ( " mm )
12:53 am 00:53 Clear 62 16.7 12 -11.1 14 14 WNW 6 9 30.01 1016 10 16 N/A
1:53 am 01:53 Clear 61 16.1 13 -10.6 15 15 WNW 6 9 30.01 1016 10 16 N/A
2:53 am 02:53 Clear 58 14.4 13 -10.6 17 17 NW 7 11 30.01 1016 10 16 N/A
3:53 am 03:53 Clear 59 15 12 -11.1 15 15 WNW 8 13 30.02 1017 10 16 N/A
4:53 am 04:53 Clear 58 14.4 13 -10.6 17 17 SW 3 6 30.01 1016 10 16 N/A
5:53 am 05:53 Clear 57 13.9 15 -9.4 19 19 WNW 5 7 30.01 1016 10 16 N/A
6:53 am 06:53 Sunny 59 15 16 -8.9 18 18 N N/A 30.02 1017 10 16 N/A
7:53 am 07:53 Sunny 64 17.8 14 -10 14 14 N N/A 30.03 1017 10 16 N/A
8:53 am 08:53 Sunny 69 20.6 9 -12.8 9 9 N N/A 30.02 1017 10 16 N/A
9:53 am 09:53 Sunny 73 22.8 7 -13.9 7 7 N N/A 30.01 1016 10 16 N/A
10:53 am 10:53 Sunny 75 23.9 8 -13.3 7 7 ESE 3 6 29.99 1016 10 16 N/A
11:53 am 11:53 Sunny 78 25.6 8 -13.3 7 7 N N/A 29.96 1015 10 16 N/A
12:53 pm 12:53 Sunny 82 27.8 9 -12.8 6 6 undefined N/A 29.93 1013 10 16 N/A
1:53 pm 13:53 Sunny 84 28.9 8 -13.3 5 5 S 6 9 29.89 1012 10 16 N/A
2:53 pm 14:53 Sunny 86 30 6 -14.4 5 5 SE 9 15 29.84 1011 10 16 N/A
3:53 pm 15:53 Sunny 86 30 6 -14.4 5 5 VRB 3 6 29.82 1010 10 16 N/A
4:53 pm 16:53 Sunny 87 30.6 6 -14.4 4 4 SW 7 11 29.79 1009 10 16 N/A
5:53 pm 17:53 Sunny 88 31.1 3 -16.1 4 4 S 9 15 29.76 1008 10 16 N/A
6:53 pm 18:53 Sunny 86 30 3 -16.1 4 4 WSW 12 19 29.74 1007 10 16 N/A
7:53 pm 19:53 Clear 83 28.3 2 -16.7 4 4 WSW 17 28 29.75 1007 10 16 N/A
8:53 pm 20:53 Clear 82 27.8 2 -16.7 4 4 W 15 24 29.76 1008 10 16 N/A
9:53 pm 21:53 Clear 80 26.7 3 -16.1 5 5 W 16 26 29.77 1008 10 16 N/A
10:53 pm 22:53 Clear 78 25.6 5 -15 6 6 W 15 24 29.77 1008 10 16 N/A
11:53 pm 23:53 Clear 78 25.6 5 -15 6 6 NW 17 28 29.78 1009 10 16 N/A

Powered by AerisWeather